This is the latest recevied weather packets stored in our database for station/object XE2KK-10. If no packets are shown the sender has not sent any weather packets the latest 10 day(s).
| Time | Temp. | Humidity | Pressure | Rain* | Wind** | Luminosity | Snow |
|---|---|---|---|---|---|---|---|
| 1778203752 | 22.22° C | 75% | 1013.1 hPa | 0 mm | - | 0 W/m² | - |
| 1778203453 | 22.22° C | 75% | 1013.3 hPa | 0 mm | - | 0 W/m² | - |
| 1778203153 | 21.67° C | 76% | 1013.1 hPa | 0 mm | - | 0 W/m² | - |
| 1778202853 | 22.22° C | 75% | 1013.2 hPa | 0 mm | - | 1 W/m² | - |
| 1778202553 | 22.22° C | 75% | 1013.2 hPa | 0 mm | - | 3 W/m² | - |
| 1778202252 | 22.22° C | 75% | 1012.9 hPa | 0 mm | - | 6 W/m² | - |
| 1778201952 | 22.22° C | 75% | 1013.2 hPa | 0 mm | - | 9 W/m² | - |
| 1778201653 | 22.22° C | 75% | 1012.9 hPa | 0 mm | - | 19 W/m² | - |
| 1778201353 | 22.22° C | 74% | 1012.8 hPa | 0 mm | - | 20 W/m² | - |
| 1778201052 | 22.78° C | 74% | 1012.8 hPa | 0 mm | - | 19 W/m² | - |
| 1778200753 | 22.78° C | 74% | 1012.7 hPa | 0 mm | - | 28 W/m² | - |
| 1778200452 | 23.33° C | 73% | 1012.5 hPa | 0 mm | - | 30 W/m² | - |
| 1778200152 | 23.33° C | 73% | 1012.6 hPa | 0 mm | - | 41 W/m² | - |
| 1778199853 | 23.33° C | 73% | 1012.6 hPa | 0 mm | - | 24 W/m² | - |
| 1778199552 | 23.89° C | 72% | 1012.4 hPa | 0 mm | - | 31 W/m² | - |
| 1778199252 | 23.89° C | 71% | 1012.2 hPa | 0 mm | - | 40 W/m² | - |
| 1778198952 | 23.89° C | 71% | 1012.6 hPa | 0 mm | - | 46 W/m² | - |
| 1778198653 | 24.44° C | 70% | 1012.5 hPa | 0 mm | - | 32 W/m² | - |
| 1778198353 | 25° C | 70% | 1012.4 hPa | 0 mm | - | 55 W/m² | - |
| 1778198053 | 25° C | 69% | 1012.3 hPa | 0 mm | - | 71 W/m² | - |
| 1778197752 | 25° C | 69% | 1012.2 hPa | 0 mm | - | 143 W/m² | - |
| 1778197452 | 25.56° C | 68% | 1012 hPa | 0 mm | - | 184 W/m² | - |
| 1778197152 | 26.11° C | 67% | 1011.9 hPa | 0 mm | - | 256 W/m² | - |
| 1778196853 | 25.56° C | 68% | 1012.1 hPa | 0 mm | - | 250 W/m² | - |
| 1778196553 | 25.56° C | 69% | 1012 hPa | 0 mm | - | 247 W/m² | - |
* Rain latest hour (hover to see other rain measurements)
** Current wind speed in m/s (hover to see current wind gust speed)